www.pogodaiklimat.ru

Погода и климат >> Архив погоды >> Греция >> Козани


ПОГОДА в Козани

  • Прогноз погоды в Козани
  • Монитор погоды в Козани

АРХИВ ПОГОДЫ в Козани

Время (UTC), дата Ветер
(напр.,м/с)
 
Видим.   Явления Облачность Т
(С)
Тd
(С)
f
(%)
Тe
(С)
Тes
(С)
Комфортность P
(гПа)
Po
(гПа)
Тmin
(С)
Tmax
(С)
R
(мм)
R24
(мм)
S
(см)
18 18.06 ЮВ 2
{4}
10 км гроза без осадков 8/3 540 м
[Cb cap Ac und]
+21.0 +12.2 57 +24 +24 комфорт 1014.0 943.0 +28.8
21 18.06 штиль 0
{8}
н/о {осадки} н/о +19.0 +12.2 65 +20 +20 1016.7 945.7
00 19.06 С 2
{5}
н/о в посл. час осадки н/о +16.2 +15.4 95 +16 +16 1016.1 944.5 2
03 19.06 СЗ 2
{4}
н/о н/о +14.2 +14.0 99 +14 +14 1016.1 944.0
06 19.06 штиль 0
{2}
10 км 4/0 2000 м
[Ac lent Cs]
+19.2 +14.4 74 +20 +26 1015.0 943.5 +15.0 265
09 19.06 СВ 3
{3}
10 км 4/3 750 м
[Cu med, cong Ac und Cs]
+23.6 +13.8 54 +26 +37 жарко 1014.0 943.5
12 19.06 В 3
{4}
10 км гроза без осадков 5/4 600 м
[Cb cap Ac und Cs]
+28.0 +14.9 45 +31 +39 душно 1011.5 942.2
15 19.06 штиль 0
{2}
10 км {гроза, дождь} 6/1 600 м
[Cu med, cong Ac lent Cs]
+23.6 +14.2 56 +26 +32 жарко 1012.2 941.9
18 19.06 штиль 0
{2}
10 км {гроза, дождь} 5/1 600 м
[Cu med, cong Ac lent Cs]
+21.2 +15.9 72 +25 +25 комфорт 1012.9 942.0 +28.0 12
21 19.06 СЗ 1
{3}
н/о {осадки} н/о +19.2 +14.5 74 +22 +22 комфорт 1014.0 943.2
00 20.06 С 3
{3}
н/о {осадки} н/о +16.8 +15.2 90 +17 +17 1014.1 942.7 0.0
03 20.06 С 2
{4}
н/о н/о +16.5 +14.6 89 +17 +17 1014.2 942.8
06 20.06 штиль 0
{2}
10 км 3/0 2000 м
[Ac lent]
+21.2 +17.7 80 +25 +31 комфорт 1013.8 942.7 +17.2 270
09 20.06 штиль 0
{2}
10 км 3/3 600 м
[Cu med, cong]
+26.0 +13.1 45 +28 +45 жарко 1012.7 942.7
12 20.06 СВ 3
{4}
10 км гроза, ливневой дождь 9/5 540 м
[Cb cap Ac und]
+25.0 +15.5 56 +28 +32 жарко 1011.6 941.8 1
15 20.06 штиль 0
{4}
10 км гроза без осадков 6/4 540 м
[Cb cap Ac und]
+23.0 +17.2 70 +28 +32 душно 1011.6 941.4
18 20.06 В 3
{3}
10 км {гроза, дождь} 6/0 2000 м
[Ac und Cs]
+22.0 +17.5 76 +27 +27 душно 1013.6 942.6 +27.0 5
21 20.06
{3}
н/о н/о +18.5 +16.5 88 1014.8 943.8
00 21.06 С 3
{5}
н/о н/о +18.3 +16.3 88 +19 +19 1015.0 943.9
03 21.06
{5}
н/о н/о +16.7 +15.8 94 1015.5 944.0
06 21.06 штиль 0
{2}
10 км ясно +21.2 +17.7 80 +25 +33 комфорт 1015.4 944.3 +17.0 270
09 21.06 штиль 0
{2}
10 км 1/1 600 м
[Cu hum]
+26.0 +14.4 49 +28 +50 жарко 1014.5 944.5
12 21.06 СЗ 3
{4}
10 км 3/3 600 м
[Cu med, cong]
+29.4 +10.6 31 +30 +40 жарко 1013.4 944.3
15 21.06 С 5
{6}
10 км 4/3 750 м
[Cu med, cong Ac und Cs]
+29.6 +10.4 30 +30 +32 жарко 1011.6 942.6
18 21.06 С 4
{6}
10 км 4/0 2000 м
[Ac und Cs]
+25.2 +13.7 49 +27 +27 жарко 1013.4 943.4 +30.2
21 21.06 С 3
{4}
н/о н/о +20.6 +11.7 57 +23 +23 комфорт 1016.1 945.5
00 22.06
{5}
н/о н/о +19.8 +11.8 60 1016.8 945.9
03 22.06
{7}
н/о н/о +18.5 +12.2 67 1017.2 946.1
06 22.06 СВ 2
{4}
10 км 3/0 2000 м
[Ac lent]
+22.8 +14.0 58 +26 +31 жарко 1017.3 946.0 +19.0 270
09 22.06 СЗ 3
{5}
10 км 3/1 600 м
[Cu med, cong Ac lent Cs]
+27.0 +13.6 44 +29 +42 жарко 1015.9 946.2
12 22.06 С 3
{4}
10 км 4/3 750 м
[Cu med, cong Ac und Cs]
+30.0 +14.7 39 +32 +42 жарко 1015.3 946.0
15 22.06
{8}
н/о н/о +29.9 +9.6 28 1013.1 944.8
18 22.06 штиль 0
{4}
н/о н/о +24.3 +15.1 56 +27 +27 жарко 1014.7 945.0 +30.8
21 22.06 С 3
{4}
н/о н/о +21.1 +13.4 61 +23 +23 комфорт 1016.7 946.2
00 23.06 С 3
{4}
н/о н/о +19.6 +14.3 71 +22 +22 комфорт 1016.6 945.8
03 23.06
{4}
н/о н/о +18.4 +13.7 74 1016.8 945.6
06 23.06 штиль 0
{2}
10 км 5/0
[Cs]
+24.8 +16.8 61 +28 +36 жарко 1016.3 945.6 +18.0 270
09 23.06 штиль 0
{2}
10 км 8/0 2000 м
[Ac lent Cs]
+28.0 +14.9 45 +31 +45 душно 1014.6 945.0
12 23.06 штиль 0
{2}
10 км 8/4 750 м
[Sc diur, vesp Ac und Cs]
+29.4 +15.1 42 +32 +42 душно 1013.9 944.9
15 23.06 Ю 3
{6}
н/о н/о +29.0 +11.1 33 +30 +30 жарко 1012.1 943.7
18 23.06 З 1
{4}
н/о н/о +24.9 +14.0 51 +27 +27 жарко 1012.7 943.3 +31.3 0.0
21 23.06 С 3
{4}
н/о н/о +20.7 +12.5 59 +23 +23 комфорт 1014.5 944.0
00 24.06 С 2
{4}
н/о н/о +20.6 +9.8 50 +23 +23 комфорт 1014.3 943.8
03 24.06 С 2
{5}
н/о н/о +18.5 +13.6 73 +20 +20 1014.3 943.3
06 24.06 штиль 0
{2}
10 км ясно +23.8 +9.6 41 +25 +33 комфорт 1013.9 943.4 +18.0 280
09 24.06 штиль 0
{2}
10 км 4/1 750 м
[Cu hum Ci fib]
+28.0 +10.9 34 +29 +49 жарко 1012.5 942.9
12 24.06 штиль 0
{2}
10 км 8/3 750 м
[Cu med, cong Ac lent Cs]
+29.4 +11.6 33 +30 +41 жарко 1011.0 942.2
15 24.06 С 3
{4}
10 км 8/4 750 м
[Cu med, cong Ac und Cs]
+26.6 +12.2 41 +28 +30 жарко 1011.6 941.8
18 24.06 СЗ 5
{6}
10 км 8/4 750 м
[Sc Ac und Cs]
+20.4 +15.4 73 +23 +23 комфорт 1015.4 943.9 +29.8
21 24.06 С 4
{11}
н/о {осадки} н/о +18.2 +14.7 80 +18 +18 1016.8 945.6
00 25.06 СЗ 5
{8}
н/о в посл. час осадки н/о +17.4 +15.2 87 +17 +17 1017.9 946.4 0.4
03 25.06 С 3
{9}
н/о осадки н/о +17.1 +15.0 87 +17 +17 1018.5 946.9
06 25.06 СЗ 2
{3}
10 км 8/4 300 м
[St Ac und]
+20.0 +15.7 76 +23 +25 комфорт 1018.5 946.7 +18.0 0.4 250
09 25.06 штиль 0
{3}
10 км 5/4 600 м
[Cu Sc Ac und]
+24.2 +17.1 65 +28 +41 душно 1017.9 947.3
12 25.06 СВ 4
{5}
10 км 5/4 600 м
[Cu Sc Ac und]
+27.6 +13.1 41 +29 +36 жарко 1017.0 947.3
15 25.06 штиль 0
{2}
10 км 1/1 600 м
[Cu hum Ac lent]
+28.0 +12.8 39 +29 +37 жарко 1016.7 947.0

 

Местоположение метеостанции Козани (Греция): широта 40.30 долгота 21.78 высота над уровнем моря 627 м.

В архиве по умолчанию представлена погода в Козани за последнюю неделю. Архивные данные за месяц целиком и за предыдущие месяцы, начиная с января 2011 года, Вы можете получить, выбрав интересующий диапазон дат из раскрывающегося списка и нажав кнопку "Ввод!".


*Определитесь, кто Вы:
робот инопланетянин человек

Внимание! Время в таблицах - всемирное. Для получения местного времени необходимо прибавить поправку, которая равна 2 ч.

Смотрите также архив погоды в соседних городах и на ближайших метеорологических станциях:

Погода в Кастории (Греция) (46 км)
Погода во Флорине (Греция) (62 км)
Погода в Преторе (Македония) (86 км)
Погода в Битоле (Македония) (90 км)
Погода в Корке (Албания) (92 км)
Погода в Ларисе (Греция) (92 км)
Погода в Конице (Греция) (93 км)
Погода в Салониках (Греция) (104 км)
Погода в Янине (Греция) (106 км)
Погода в Тополчани (Македония) (106 км)

Пояснения к столбцам:

Ветер - указаны скорость ветра в м/с - средняя за 10 мин, порывы в срок и между сроками (в фигурных скобках) и направление, откуда дует ветер: С - северный, СВ - северо-восточный, В - восточный, ЮВ - юго-восточный, Ю - южный, ЮЗ - юго-западный, З - западный, СЗ - северо-западный.
Видимость - горизонтальная дальность видимости в метрах или километрах. При видимости от 1 до 10 км при отсутствии осадков обычно наблюдается дымка, при ухудшении видимости до 1 км и менее - туман. В сухую погоду видимость может ухудшаться дымом, пылью или мглою.
Явления - указаны атмосферные явления, наблюдавшиеся в срок или в последний час перед сроком; фигурными скобками обозначены явления, наблюдавшиеся между сроками (за 1-3 часа до срока); квадратными скобками обозначены град или гололедные отложения с указанием их диаметра в мм.
Облачность - указаны через наклонную черту общая и нижняя облачность в баллах и высота нижней границы облаков в метрах; квадратными скобками обозначены формы облаков: Ci - перистые, Cs - перисто-слоистые, Cc - перисто-кучевые, Ac - высококучевые, As - высокослоистые, Sc - слоисто-кучевые, Ns - слоисто-дождевые, Cu - кучевые, Cb - кучево-дождевые. Подробнее классификацию облаков см. в Атласе облаков (PDF).
T - Температура воздуха - температура, измеренная на высоте 2 м над землей.
Td - Температура точки росы - температура, при понижении до которой содержащийся в воздухе водяной пар достигнет насыщения.
f - Относительная влажность воздуха - влажноcть воздуха, измеренная на высоте 2 м над землей.
Te - Эффективная температура - температура, которую ощущает одетый по сезону человек в тени. Характеристика душности погоды. При расчете учитывается влияние влажности воздуха и скорости ветра на теплоощущения человека.
Tes - Эффективная температура на солнце - температура, которую ощущает человек, с поправкой на солнечный нагрев. Характеристика знойности погоды. Зависит от высоты солнца над горизонтом, облачности и скорости ветра. Ночью, в пасмурную погоду, а также при ветре 12 м/с и более поправка равна нулю.
P - Атмосферное давление - приведенное к уровню моря атмосферное давление.
Po - Атмосферное давление - измеренное на уровне метеостанции атмосферное давление.
Tmin - Минимальная температура - минимум температуры воздуха на высоте 2 м над землей.
Tmax - Максимальная температура - максимум температуры воздуха на высоте 2 м над землей.
R - Количество осадков - Количество выпавших осадков за период времени, мм. При наведении курсора мыши на число - период времени, за который выпало указанное количество осадков.
R24 - Количество осадков - Количество выпавших осадков за 24 часа, мм.
S - Снежный покров - Высота снежного покрова, см. При наведении курсора мыши на число - состояние снежного покрова и степень покрытия местности в баллах.